User: anonymous   Login
Location: Unspecified
(0.0000°N, 0.0000°E)
Time: 03:38:38
(UTC+00:00)
Language:

METEOR-M - Orbit

View from above orbital plane
View from above orbital plane
View from above satellite
View from above satellite

Ground track
Ground track

The orbit data is extracted from the following two-line orbital elements,

1 35865U 09049A   17230.86677008 -.00000005  00000-0  16631-4 0  9991
2 35865  98.4200 249.7606 0001961 357.4406   2.6762 14.22116394411015
Epoch (UTC): 18 August 2017 20:48:08
Eccentricity: 0.0001961
inclination: 98.4200°
perigee height: 817 km
apogee height: 819 km
right ascension of ascending node: 249.7606°
argument of perigee: 357.4406°
revolutions per day: 14.22116394
mean anomaly at epoch: 2.6762°
orbit number at epoch: 41101

The dashed part of the orbit path shows where the satellite is in the earth's shadow,  

DLR